Dewpoint
13 17 15 11 9 10 9 9 3 5 7 12 15 18 22 26 28 30 31 33 35 36 39 42 48 53 53 54 53 52 51 50 48 48 46 44 41 39 39 39 38 37 35 33
10 17 17 11 9 10 11 10 7 7 7 16 20 21 22 24 26 26 28 30 32 34 36 38 40 43 52 52 53 52 51 49 48 47 45 43 41 40 40 40 40 40 37 34
6 9 14 6 8 9 10 13 10 4 11 16 17 19 22 23 25 25 27 29 30 32 34 36 37 40 46 52 52 52 51 49 47 46 42 40 39 38 37 36 37 37 35 31
8 11 3 12 15 14 11 14 13 11 13 16 18 21 25 25 25 25 27 27 29 30 33 35 36 38 41 50 51 51 51 49 48 45 42 40 39 37 37 36 33 32 32 31
6 7 11 8 11 10 9 10 14 13 14 17 20 23 22 25 26 26 27 27 28 30 32 34 35 37 41 50 50 50 50 49 47 45 43 41 39 38 37 37 36 36 35 33
7 6 1 6 9 11 14 8 14 16 16 16 19 10 16 25 26 25 26 27 28 30 32 32 34 36 45 50 50 50 49 49 47 44 41 41 40 39 38 37 35 33 32 32
4 4 6 5 8 9 -1 4 15 17 17 19 16 20 24 25 24 25 26 26 28 29 31 32 33 35 38 47 47 50 49 48 46 43 42 41 39 39 38 36 35 34 33 34
3 1 -1 6 8 5 12 14 16 17 17 20 20 22 23 22 24 25 25 26 27 28 29 31 33 33 34 34 35 42 48 46 43 43 41 40 39 38 37 37 35 35 36 37
4 6 7 5 5 9 10 14 16 17 20 21 20 21 22 22 23 24 25 26 27 27 29 30 32 32 32 33 35 38 41 39 37 37 37 37 36 35 35 35 35 35 35 35
2 5 4 5 7 8 10 14 16 21 22 21 20 21 21 22 22 23 25 26 27 27 27 29 31 32 32 33 34 36 35 35 35 35 35 36 36 36 36 35 35 35 35 34
1 3 4 6 7 8 11 14 20 21 21 21 21 20 21 21 22 23 24 25 27 27 27 28 30 31 32 33 34 33 34 34 34 35 34 34 35 35 36 36 36 34 34 33
-2 3 5 6 8 10 13 17 21 22 20 20 22 21 22 21 23 23 22 24 24 25 26 27 30 30 31 32 33 34 33 33 33 33 33 34 34 34 38 38 37 36 35 34
4 7 9 10 11 12 20 21 22 21 21 20 21 22 22 21 23 23 22 22 24 24 25 27 29 30 32 32 33 32 32 33 34 33 33 33 33 33 32 36 37 36 36 37
7 10 7 11 14 18 21 21 22 20 19 20 20 21 21 21 21 22 22 24 25 25 25 26 28 29 31 32 32 32 33 34 32 32 32 33 33 32 32 32 31 33 37 37
7 13 14 15 19 18 19 19 18 18 19 19 21 21 21 20 20 22 23 25 25 24 24 25 25 28 31 32 31 31 31 31 32 32 32 33 32 32 32 32 32 32 33 35
9 12 15 16 17 16 17 16 16 18 19 21 21 22 23 23 23 23 23 23 22 23 24 24 25 27 30 31 31 32 32 34 32 31 31 31 32 31 31 31 31 31 31 31
8 8 11 13 14 15 17 19 20 21 21 21 22 23 23 23 22 22 22 23 23 23 26 26 26 28 28 28 28 29 30 31 32 30 30 30 30 30 30 30 28 27 26 27
14 16 16 16 15 17 17 19 20 21 21 23 23 23 22 22 21 22 23 23 23 23 25 28 29 28 28 28 28 27 27 27 27 27 27 27 27 28 27 27 27 26 27 28
17 17 18 18 19 19 19 20 21 22 22 23 22 22 23 23 23 23 23 22 21 20 23 26 28 28 28 29 27 27 27 27 27 27 27 27 26 26 25 24 23 22 22 22
16 17 18 18 19 19 18 20 21 21 22 23 22 22 21 22 23 23 23 22 23 24 26 26 25 25 27 28 28 26 25 25 24 24 24 24 24 23 24 23 22 21 21 21
16 18 18 18 18 19 19 20 20 19 21 22 21 21 21 22 21 21 20 20 22 23 24 26 24 24 25 24 24 23 23 23 23 23 22 22 21 21 20 20 20 20 19 19
16 16 16 17 17 17 18 19 19 20 19 20 21 21 20 20 20 20 21 21 22 24 22 22 22 24 23 22 20 20 20 20 20 20 20 20 19 18 18 17 17 17 17 17
15 14 15 15 15 17 18 18 18 18 18 18 19 19 20 20 20 20 19 21 21 22 21 21 23 23 22 16 17 17 17 16 16 16 16 15 15 15 15 16 16 16 16 16
13 13 13 14 14 15 14 16 18 18 18 18 19 20 19 17 18 20 20 22 23 22 21 21 22 22 19 15 14 14 14 14 14 14 16 16 13 13 12 13 13 13 15 14
12 12 12 13 13 14 15 16 17 17 17 17 17 19 20 21 19 19 19 19 21 19 19 22 22 21 15 15 14 13 12 11 10 10 10 10 10 10 10 10 10 11 11 12
11 11 12 13 13 15 15 14 15 16 15 15 16 17 18 20 19 18 19 19 18 19 18 18 17 16 15 13 11 10 9 10 8 10 7 6 7 7 8 8 11 12 14 16
13 13 11 11 12 12 16 15 13 14 14 14 14 16 17 17 19 18 18 17 18 18 18 17 17 17 16 14 12 10 10 12 13 7 5 5 5 3 6 7 5 6 6 8
Lifted_Index
3 3 4 4 4 5 6 5 5 4 4 6 7 6 5 3 1 1 1 1 0 0 1 1 0 -0 -1 -1 -0 -0 0 1 1 1 1 1 0 0 0 -0 0 1 2 3
3 3 4 4 4 5 6 6 5 4 5 7 8 8 6 4 2 1 1 1 0 1 1 1 0 -0 -1 -1 -0 -0 0 1 1 1 1 1 1 1 1 0 1 1 2 2
2 3 3 4 5 6 7 8 7 5 5 7 9 9 8 6 3 1 1 0 0 0 0 1 0 0 -0 -0 -0 -0 0 1 1 1 1 1 1 1 1 1 1 1 2 2
2 3 3 5 6 6 7 8 8 6 6 7 9 9 9 7 5 3 2 1 1 0 0 -0 -0 -0 -1 -0 -0 -0 0 1 1 1 1 1 1 2 2 1 1 1 1 2
2 2 3 5 7 7 7 7 8 8 7 8 8 7 7 7 6 5 4 3 2 1 0 -0 -0 -1 -1 -1 -0 -0 0 1 1 1 1 1 1 2 1 1 1 1 2 2
3 2 3 6 9 9 7 7 10 11 10 9 8 6 6 7 7 6 5 4 3 2 1 0 -0 -1 -1 -1 -1 -0 0 1 1 1 1 1 1 1 1 1 1 1 2 2
3 3 4 8 11 10 8 9 12 13 12 11 9 8 9 9 8 7 6 5 4 3 1 1 0 -0 -1 -1 -1 -0 0 1 1 1 1 1 1 1 0 0 1 1 2 2
5 5 6 10 12 11 12 13 14 14 13 12 11 11 10 9 8 8 7 6 5 4 2 1 1 0 -0 -0 -0 0 0 1 1 1 1 1 1 0 0 0 1 1 2 2
8 8 9 12 13 14 14 14 14 14 14 13 12 12 11 9 9 8 7 7 6 5 3 2 1 1 1 0 0 0 0 1 1 1 1 1 1 0 0 1 1 2 2 2
10 10 11 12 14 14 15 14 14 15 15 14 13 12 11 10 10 9 8 7 7 6 4 3 2 2 2 1 1 1 0 1 1 0 1 1 1 1 1 1 2 2 2 2
10 11 12 12 13 14 14 14 15 15 15 15 14 13 13 12 11 10 9 8 7 6 5 4 3 3 3 3 2 2 1 1 1 0 1 1 2 2 2 3 3 3 3 3
11 12 12 13 14 14 14 15 15 15 15 15 15 14 14 14 13 13 11 10 9 7 7 6 5 4 4 4 4 3 2 1 1 1 2 2 2 3 4 5 5 6 6 6
12 13 13 13 14 15 15 15 15 15 15 15 16 16 15 15 15 14 13 12 11 10 9 8 6 6 6 6 6 5 4 3 2 3 3 3 3 3 4 6 7 8 9 9
14 14 13 13 14 15 15 15 15 15 15 15 15 16 15 15 15 14 14 14 13 12 12 10 9 8 8 8 8 6 6 5 5 5 6 6 5 5 5 6 7 10 11 12
14 14 14 13 14 14 14 14 14 14 14 15 15 15 15 15 15 15 15 15 15 14 13 13 11 11 11 11 10 8 8 8 8 8 8 8 8 8 7 7 8 11 13 14
12 13 13 13 13 13 14 14 14 14 14 14 15 15 15 16 16 16 16 16 15 15 15 14 14 14 14 13 12 11 11 11 10 10 11 10 10 10 10 10 11 12 14 15
12 12 13 13 13 13 13 14 14 14 15 15 15 16 16 16 16 16 16 16 16 16 16 16 16 16 15 15 14 13 13 13 13 12 12 12 12 12 12 12 12 13 15 16
12 12 13 13 13 13 14 14 15 15 16 16 16 15 15 15 15 15 16 16 16 16 17 17 17 17 16 16 15 15 14 14 14 14 13 13 13 13 13 14 14 15 16 16
13 13 13 13 14 14 14 14 15 16 16 16 16 15 15 15 15 16 16 16 16 16 17 17 17 17 17 16 16 15 15 15 15 15 14 14 14 14 15 15 15 16 16 17
13 13 13 14 14 14 15 15 16 16 16 16 15 15 15 15 16 16 15 15 16 16 17 17 17 17 17 16 16 16 15 15 15 15 15 15 15 15 16 16 16 16 17 17
13 13 13 14 14 14 15 16 16 16 16 16 15 15 15 15 16 16 15 15 16 17 17 17 17 16 16 16 16 15 15 15 15 15 15 16 16 16 16 16 17 17 17 17
13 13 14 14 14 15 15 16 16 16 16 15 15 15 15 15 16 16 16 17 17 18 18 17 17 17 17 16 16 16 16 16 16 16 16 16 16 16 17 17 18 18 18 19
14 14 14 14 15 15 15 15 16 15 15 16 16 16 15 15 16 16 16 17 18 18 18 18 18 18 18 18 17 17 17 18 18 18 18 18 18 18 18 19 19 19 19 20
14 14 15 15 15 15 15 15 15 15 16 16 16 16 16 16 16 17 17 18 18 18 18 19 19 19 19 19 19 19 19 19 19 19 19 19 19 19 20 20 20 20 20 20
14 15 15 15 15 15 15 15 15 15 16 16 16 17 17 17 17 18 18 18 18 18 18 19 19 19 19 19 19 19 19 19 19 19 19 19 20 20 20 20 20 20 20 20
15 15 15 15 15 15 15 15 15 15 15 16 16 17 17 17 18 18 18 18 18 18 18 18 18 18 18 18 18 19 19 19 19 19 19 19 19 20 20 20 20 20 20 20
14 15 15 15 15 15 15 15 15 15 15 15 16 16 17 17 18 18 18 18 18 18 18 18 18 18 18 18 18 18 18 19 19 19 19 19 19 19 19 19 20 20 20 20